GFSSGP_925_rhum_276.txt.gz
RH
68 83 80 60 84 49 62 41 32 36 27 24 26 46 80 59 56 67 38 42 58 71 88 92 76 72 73 76 74 80 90 90 91 92 89 76 75 93 89 81 88 97 97 96 97 83 90 71 87
67 67 61 58 65 73 93 77 38 30 28 25 26 40 42 53 33 34 36 45 56 70 76 88 79 74 74 76 78 82 95 92 92 95 86 77 95 94 91 74 72 93 96 97 95 84 95 94 90
71 56 60 57 96 64 63 49 29 26 24 28 30 40 55 42 33 32 38 45 52 62 69 94 84 76 77 77 79 85 92 94 94 92 88 91 86 92 93 91 75 94 85 98 95 86 96 97 91
60 48 68 78 51 33 29 27 28 32 26 26 25 42 38 32 35 36 37 42 47 52 75 85 86 87 88 88 85 89 92 95 96 95 95 88 96 96 85 95 95 98 97 95 97 97 97 95 77
53 79 73 61 28 27 23 23 23 22 24 24 30 47 48 38 37 35 36 39 41 64 83 91 86 90 90 90 90 92 94 97 97 94 96 84 97 95 94 93 96 97 97 96 97 97 98 97 79
49 68 74 57 28 35 22 19 19 20 21 24 32 42 49 41 38 34 35 40 54 68 73 91 87 87 90 92 91 94 96 96 89 95 95 87 85 92 95 94 80 94 94 96 95 91 92 91 87
34 55 49 40 31 29 27 19 26 19 20 22 25 46 46 41 35 34 35 50 50 58 74 83 88 93 92 92 95 96 91 93 94 94 97 91 82 89 91 92 92 93 92 93 94 94 95 94 94
20 55 71 45 31 36 23 21 18 20 21 17 20 44 54 39 34 32 34 49 49 56 66 71 79 88 88 92 96 87 89 74 86 84 96 87 91 83 87 90 89 92 92 91 95 96 81 82 79
32 77 61 30 33 34 25 24 25 40 21 20 23 28 39 36 32 32 35 40 49 53 55 60 70 77 73 86 95 94 83 66 68 90 88 75 80 69 69 79 79 90 92 91 90 91 94 80 75
44 88 70 27 23 25 23 25 42 47 50 26 32 35 37 33 30 32 36 41 42 49 44 51 58 63 64 62 76 89 90 91 72 67 66 79 72 72 76 76 71 82 90 87 88 75 77 80 74
55 59 45 28 17 20 31 26 29 51 87 50 34 36 34 32 30 35 43 41 43 39 39 46 51 53 55 54 68 80 77 75 76 71 70 72 72 71 72 76 77 77 82 85 82 79 73 68 70
21 21 17 18 16 22 33 35 28 25 24 24 28 30 33 32 30 35 38 44 42 38 36 44 46 47 48 54 58 68 72 57 55 64 69 65 64 68 61 60 68 60 65 72 74 76 75 70 65
17 23 17 15 15 15 24 37 28 54 46 24 27 29 31 31 29 33 38 42 42 39 35 38 44 45 46 46 48 51 54 54 46 58 54 58 55 56 58 60 57 59 57 60 66 68 73 76 71
13 20 19 14 14 13 15 15 24 66 54 26 29 31 30 29 29 29 35 43 43 40 34 37 45 45 52 50 47 46 57 51 50 54 63 56 54 60 60 61 59 60 56 58 60 59 59 71 76
11 16 14 16 13 15 15 21 22 40 23 27 29 30 30 31 29 33 31 33 39 39 36 38 44 51 51 53 52 55 49 48 47 50 55 55 51 58 65 64 64 60 63 62 70 68 75 74 81
12 12 19 19 16 15 15 31 47 45 21 27 26 29 30 30 30 33 33 33 33 33 37 42 42 47 56 54 54 55 48 44 43 52 55 59 57 59 62 70 70 71 68 67 67 75 75 76 77
12 16 18 22 16 16 17 26 36 42 21 25 28 29 30 33 33 34 34 35 35 36 40 42 44 45 54 53 55 54 53 45 44 46 53 59 58 62 71 70 70 72 71 73 74 73 78 79 87
18 16 22 18 18 14 13 13 23 22 20 24 27 29 33 36 34 35 35 36 37 38 43 46 49 46 55 56 54 57 52 52 46 44 48 61 61 65 70 71 72 77 71 80 82 85 79 75 83
11 17 20 15 14 14 13 12 11 10 17 17 27 29 35 34 34 33 37 37 38 42 43 51 54 54 60 59 60 58 57 49 50 47 48 60 69 74 76 80 79 78 76 71 76 78 84 73 83
11 12 14 12 9 12 12 13 11 10 10 16 14 30 32 32 33 34 36 38 40 45 48 56 59 59 63 60 60 57 55 54 49 50 47 64 66 74 69 82 86 79 75 82 73 74 80 81 80
10 11 12 12 12 12 12 15 15 11 10 15 11 15 25 32 36 36 36 37 41 44 52 61 64 64 68 63 64 64 60 56 53 52 53 59 68 68 74 83 87 74 72 79 82 79 69 78 87
10 9 10 11 15 17 11 22 19 16 14 12 10 11 16 27 31 35 33 35 38 42 51 58 68 72 73 64 67 66 70 70 62 60 58 72 74 80 88 84 73 74 76 66 73 84 85 78 81
6 8 9 10 12 12 12 13 13 17 17 12 12 12 14 24 26 29 31 33 34 40 43 57 66 73 75 78 73 72 74 67 61 60 60 65 84 84 85 87 87 81 80 76 66 76 89 87 88
4 6 9 10 12 16 12 12 26 69 52 12 12 12 14 17 20 25 28 30 32 34 41 48 62 73 76 78 82 76 72 72 66 62 62 75 84 87 88 88 83 73 69 68 81 66 79 80 87
4 6 13 16 17 16 10 13 17 18 16 11 12 13 14 14 17 20 23 27 30 31 37 40 58 73 77 78 81 86 77 76 73 68 66 75 85 87 94 90 81 75 67 74 72 82 70 77 79
4 5 11 19 16 14 11 15 20 15 13 9 8 11 12 12 12 14 19 24 28 30 33 38 48 67 74 77 80 85 87 83 81 75 74 73 79 78 87 87 73 76 79 77 79 78 84 86 77
5 6 5 7 7 10 18 27 19 19 9 9 8 9 11 11 12 13 16 19 24 27 33 35 43 59 65 69 73 80 75 83 79 80 79 78 82 89 87 88 92 93 87 89 78 84 90 90 82
4 3 6 5 12 14 15 28 42 23 12 9 9 8 9 10 10 12 14 17 20 24 28 35 40 51 55 57 67 73 81 82 84 80 80 84 83 88 84 89 92 93 86 89 88 89 90 88 77
4 5 4 4 5 8 11 24 16 24 12 10 8 8 9 11 10 11 12 15 19 23 27 33 38 42 53 57 58 63 71 76 82 81 80 86 86 86 89 92 90 93 92 89 93 91 89 81 79
4 4 4 6 8 6 7 13 12 14 10 8 8 9 12 14 13 12 14 18 22 25 28 34 39 44 48 52 57 62 59 74 76 80 84 86 82 84 80 88 92 90 91 90 89 92 87 80 87

GFSSGP_925_rhum_279.txt.gz
RH
61 70 83 82 91 86 82 74 52 41 44 44 45 46 44 59 59 75 67 74 82 86 90 84 78 79 84 84 82 86 95 95 95 94 90 86 92 93 85 93 95 95 94 95 96 85 74 76 92
70 91 90 91 89 84 83 73 47 36 50 44 40 43 53 57 42 57 70 79 84 88 84 84 85 81 71 74 74 88 94 95 87 86 81 92 91 91 87 92 91 97 96 95 96 79 67 92 89
86 82 88 96 92 80 79 56 46 32 30 42 51 43 48 45 44 51 68 79 81 91 83 80 78 74 71 72 76 88 90 91 95 80 89 89 96 93 91 90 96 96 96 94 96 92 95 93 75
76 77 81 82 75 56 38 41 30 31 28 39 42 51 40 34 44 56 67 69 79 89 84 83 75 76 76 76 80 87 87 88 90 94 94 94 95 91 95 96 95 96 96 95 94 96 74 78 76
60 88 79 78 59 31 28 30 31 34 34 42 44 54 56 38 48 55 62 65 78 81 84 80 83 80 87 84 86 90 96 91 82 89 95 93 95 96 96 96 96 96 97 96 96 89 70 66 54
74 78 84 79 40 29 24 26 21 24 32 46 50 54 56 39 42 49 55 65 67 70 78 83 84 84 84 94 94 89 95 92 80 94 91 94 96 96 95 96 95 97 95 96 96 96 78 61 36
65 77 84 83 54 36 26 23 23 22 30 37 39 60 58 44 37 43 62 75 76 78 74 79 86 89 83 84 94 95 95 84 93 91 87 78 93 93 91 94 96 94 96 94 96 93 81 65 51
52 83 78 69 49 39 25 28 30 33 32 30 39 59 65 48 40 54 65 72 78 89 91 90 85 84 84 83 95 95 94 95 95 92 88 86 79 92 93 84 92 93 93 94 94 96 92 70 57
36 71 78 55 37 34 27 32 32 36 35 37 35 44 44 36 48 52 63 73 81 83 84 87 89 86 83 80 91 89 87 91 91 84 85 80 69 75 78 77 91 92 92 92 95 87 73 71 63
46 75 64 42 26 28 32 45 43 46 44 44 45 41 37 35 46 55 61 71 67 73 78 76 76 75 79 91 90 73 62 51 69 76 71 68 79 81 77 77 76 92 93 91 88 83 81 73 64
46 47 37 36 26 30 38 41 41 48 53 42 50 46 38 34 39 48 55 61 58 64 71 71 67 62 82 91 79 80 76 58 61 60 64 65 65 74 80 75 72 76 86 84 81 75 72 67 75
39 36 33 30 25 23 28 45 60 54 56 48 39 39 38 35 40 41 46 48 51 53 62 65 63 57 64 78 65 63 72 83 71 71 68 69 66 69 76 72 72 66 66 72 71 68 68 72 75
35 29 20 18 17 17 28 39 50 52 64 42 37 36 37 36 45 44 43 43 42 45 56 58 57 54 56 70 58 55 62 69 70 65 69 73 65 66 65 64 67 69 70 69 77 74 79 76 70
15 20 19 17 17 16 30 36 36 48 46 43 35 38 36 36 39 43 46 44 42 42 47 53 49 50 52 60 53 53 58 57 63 59 56 66 60 58 60 61 59 65 64 64 63 71 76 78 74
14 16 19 17 16 16 36 47 52 57 43 53 56 35 36 36 35 42 45 47 44 40 42 48 45 48 51 53 51 52 53 56 55 56 56 58 57 60 60 62 62 68 66 68 71 73 74 73 78
15 14 21 20 18 17 18 42 52 50 43 60 59 40 35 39 39 37 45 46 45 41 46 46 45 45 50 55 53 57 56 57 55 53 58 59 56 60 67 65 65 68 70 69 71 78 80 84 79
16 22 21 24 19 19 20 30 40 53 54 76 65 52 39 43 43 34 44 47 45 44 48 46 49 43 46 50 53 51 53 53 53 55 54 59 52 59 61 65 66 68 68 70 74 76 76 84 86
24 22 23 24 22 20 24 22 27 32 52 60 52 48 47 45 46 39 34 36 36 43 47 47 49 51 47 46 51 49 49 50 57 55 56 57 58 58 61 62 65 68 68 73 77 83 85 78 90
15 17 24 23 20 20 18 15 24 32 36 50 55 49 46 44 46 40 36 36 36 39 46 44 47 51 53 54 55 56 49 49 52 53 46 60 62 64 65 65 65 70 69 69 81 83 81 84 86
14 15 16 19 15 18 18 17 14 16 29 35 48 47 42 45 45 43 39 37 38 39 46 46 47 52 55 56 54 57 57 51 48 48 49 54 61 64 67 66 67 73 76 75 80 77 84 84 86
12 13 14 15 14 13 16 22 20 16 18 27 30 35 41 42 46 46 43 43 40 43 47 50 52 52 59 59 55 58 59 61 56 50 51 59 63 66 69 70 69 79 68 70 82 75 73 83 90
7 5 8 12 16 25 17 31 27 22 18 27 26 46 39 40 42 44 44 45 44 47 45 53 53 53 54 63 65 63 61 62 60 57 53 55 66 69 72 72 74 77 66 67 69 70 73 76 85
6 5 6 10 15 18 17 20 33 29 28 29 24 31 37 39 39 42 42 42 45 45 52 54 58 57 58 60 68 67 66 60 60 61 60 61 67 69 71 73 75 78 69 69 66 72 69 78 77
4 5 8 10 18 29 22 20 31 38 31 26 20 22 36 37 37 39 38 38 41 45 52 60 64 65 62 62 62 70 70 71 67 64 65 68 67 72 75 77 80 74 71 73 67 71 72 73 78
6 6 16 22 25 30 19 19 23 35 27 21 19 27 33 33 35 38 40 40 39 44 47 63 71 78 73 71 71 66 73 74 71 67 64 72 79 83 79 78 85 87 85 73 72 71 72 69 78
7 7 16 22 30 22 16 28 30 28 28 23 17 21 23 28 29 33 36 36 38 39 47 53 68 78 80 81 82 80 76 76 74 70 65 70 71 74 79 80 82 87 85 78 77 74 76 85 79
7 9 8 8 8 14 19 21 22 21 22 22 20 18 18 19 24 26 30 33 37 38 46 46 64 75 80 82 84 87 87 82 78 74 69 72 72 74 86 88 88 87 88 84 78 82 82 78 80
6 7 9 12 14 18 15 34 34 21 18 22 20 17 17 16 18 22 25 31 37 37 39 45 54 73 80 83 84 85 86 81 76 76 78 78 75 77 73 88 90 91 91 93 92 90 82 86 84
7 8 7 8 11 16 17 26 27 29 25 23 18 15 18 18 20 21 26 30 32 34 37 43 52 71 76 76 76 78 79 76 75 76 80 81 78 82 86 87 89 92 92 88 94 92 88 88 90
6 8 8 14 13 15 16 16 20 21 19 18 17 20 22 20 21 22 29 30 31 33 37 38 53 61 64 62 60 67 68 69 71 76 80 78 80 85 87 85 88 88 84 92 92 90 83 88 87

GFSSGP_925_rhum_285.txt.gz
RH
86 71 72 92 88 83 80 82 68 54 53 50 48 52 59 61 61 72 89 79 74 76 85 83 82 93 95 90 87 86 91 84 85 88 96 95 95 95 96 95 96 96 96 95 95 96 87 97 95
78 86 91 95 84 80 80 76 62 55 46 48 45 52 59 81 80 89 91 91 74 78 82 84 82 87 94 84 84 78 89 78 74 89 93 95 95 95 95 96 96 96 96 94 94 95 88 96 94
85 87 87 89 89 78 72 63 54 50 44 45 50 46 65 94 82 84 84 93 88 85 82 80 85 84 95 83 79 78 89 83 90 94 95 95 96 96 96 96 96 95 96 96 94 93 88 95 95
88 89 87 86 76 67 60 53 52 54 53 51 48 62 63 68 78 84 94 90 87 85 83 83 88 94 97 99 95 95 96 83 91 91 95 94 95 95 96 96 95 96 96 94 91 85 89 95 89
79 86 83 77 68 61 49 43 50 55 50 47 49 70 76 70 74 91 95 89 85 96 87 84 87 86 94 95 96 96 96 94 90 96 96 95 95 94 96 96 94 96 95 95 89 83 93 83 85
76 76 83 85 61 53 42 45 47 49 51 51 58 65 76 80 89 96 90 85 81 81 84 87 84 84 87 94 86 93 96 95 94 97 95 96 96 96 95 96 96 94 95 96 93 95 94 94 89
79 64 78 81 63 63 43 42 50 53 53 51 48 75 85 85 89 91 92 88 76 75 83 84 88 94 95 91 83 93 96 96 95 92 95 96 96 96 96 96 97 94 95 95 95 94 93 84 71
65 67 75 76 69 57 40 35 39 45 51 42 47 81 96 79 86 87 94 93 87 86 82 85 87 90 90 86 92 96 98 95 94 95 94 96 95 95 96 92 93 95 95 94 95 95 91 87 78
52 62 62 66 61 51 42 37 34 40 49 46 46 56 60 77 81 95 97 97 99 100 97 92 89 87 87 83 93 96 98 95 95 93 93 90 89 91 91 86 96 96 94 95 77 79 90 88 77
52 72 51 42 38 45 42 42 45 49 52 53 57 59 68 73 89 92 90 92 96 99 97 96 94 90 85 84 89 92 92 94 93 92 90 82 76 80 82 86 95 95 95 96 93 71 67 66 68
47 46 40 37 36 40 43 47 43 52 57 55 65 68 66 79 87 90 91 92 95 95 98 97 95 93 88 89 94 91 89 90 90 90 71 71 75 72 71 81 93 91 93 92 93 85 78 73 70
44 38 37 41 39 41 45 42 40 45 47 48 58 57 66 79 82 83 89 91 92 98 96 89 88 91 91 84 92 85 91 86 79 77 71 72 73 72 71 76 77 95 91 81 79 72 74 72 71
41 37 31 38 38 38 41 45 42 51 50 46 60 64 70 74 75 78 83 84 87 92 93 86 84 84 85 76 76 70 68 70 69 68 70 72 78 78 78 75 74 78 77 74 64 67 65 66 75
16 26 27 33 37 37 43 46 45 57 52 48 56 63 66 70 70 74 80 82 86 86 88 87 84 78 78 62 59 56 50 42 51 54 61 68 73 76 76 76 74 69 59 65 65 66 60 67 75
15 18 21 37 40 41 42 52 46 44 53 50 49 49 59 62 66 73 76 78 82 81 79 85 77 73 63 71 65 64 58 51 54 55 60 66 71 70 70 74 72 70 65 69 72 75 75 76 75
20 20 24 36 41 38 35 45 43 48 53 57 51 48 50 58 59 64 70 71 76 77 79 78 76 73 64 74 70 64 64 60 63 64 64 64 70 73 71 70 72 69 77 78 79 78 76 83 86
26 26 25 24 38 40 40 33 34 51 54 65 60 51 47 56 53 55 61 66 70 70 77 72 78 64 63 76 77 72 60 62 58 64 66 65 67 66 70 67 68 69 73 68 72 77 75 82 88
26 26 23 25 23 29 40 40 41 50 50 58 66 55 53 53 55 52 57 61 63 66 68 63 71 68 57 78 80 76 68 60 63 64 63 63 65 68 66 66 69 75 70 72 71 73 78 80 86
21 23 24 20 16 18 23 31 45 47 53 56 58 62 56 55 47 50 53 58 60 60 68 70 74 68 64 71 74 72 68 63 64 64 66 66 62 64 63 64 70 73 72 71 74 81 85 89 89
19 19 18 18 16 26 29 29 42 47 44 50 49 51 54 56 58 57 52 53 60 60 65 70 66 62 64 65 63 66 63 63 63 56 61 63 63 63 62 64 66 70 74 77 78 80 87 96 87
14 17 16 16 12 15 22 30 39 46 47 48 50 42 44 48 58 58 58 56 61 64 62 63 60 59 57 59 68 66 64 63 62 58 59 64 62 65 64 65 65 66 72 72 74 80 79 84 85
14 10 12 12 9 13 20 38 26 40 52 49 50 48 43 45 50 56 56 58 60 63 58 57 59 62 54 56 61 61 59 61 56 54 56 59 61 65 63 62 64 66 68 72 68 72 77 80 89
10 8 8 8 10 20 19 29 27 34 41 47 44 46 41 49 47 54 51 53 56 60 61 59 60 59 56 51 55 57 59 56 51 52 55 56 59 64 63 62 63 66 68 70 70 71 73 82 81
7 7 9 18 22 17 18 27 27 32 34 36 41 40 35 48 48 51 46 48 52 57 59 61 63 62 59 56 55 56 58 60 59 57 61 62 63 62 63 65 65 68 70 72 74 68 74 78 81
7 11 15 13 15 15 18 24 23 20 29 29 32 34 34 46 48 53 52 50 50 56 62 65 67 71 64 63 63 58 60 64 64 59 60 64 68 71 69 68 70 73 75 72 71 72 75 74 76
9 11 15 12 15 14 18 15 15 22 26 26 27 34 37 46 48 50 51 48 50 53 59 64 68 71 71 64 62 64 62 65 66 63 64 64 64 62 62 65 72 72 78 73 74 81 75 75 76
9 10 10 14 17 15 15 17 28 26 23 25 29 30 46 43 46 47 48 49 50 50 54 60 66 68 72 74 76 76 73 73 69 67 66 65 66 66 67 70 72 78 77 84 80 82 79 81 75
8 8 10 15 12 12 16 17 28 18 27 26 26 25 36 43 43 44 48 48 48 49 50 55 61 66 66 72 78 81 79 74 74 71 71 71 72 72 73 74 83 81 99 93 84 92 90 85 80
10 10 11 13 16 16 16 18 19 25 22 22 24 23 28 46 43 44 47 45 44 46 51 53 61 68 72 73 73 75 77 75 74 75 75 77 77 74 78 85 90 89 90 90 95 97 96 96 92
8 9 11 14 12 19 18 16 11 17 20 26 23 23 24 26 42 41 45 45 45 46 47 53 59 67 69 74 79 77 79 80 81 79 77 79 82 82 82 86 86 88 89 89 93 93 94 96 97

GFSSGP_925_rhum_291.txt.gz
RH
82 97 89 90 74 63 68 64 62 50 46 42 40 44 48 52 50 56 76 66 72 78 85 92 88 77 75 74 74 73 71 80 80 95 95 97 85 84 85 84 89 91 95 95 96 94 93 94 91
97 93 94 81 61 61 61 60 59 45 39 42 38 48 53 59 68 80 72 75 72 76 79 85 87 85 89 89 85 86 95 92 94 92 91 88 91 91 91 94 89 94 95 96 91 96 90 90 90
84 93 78 69 69 66 58 49 49 48 42 40 39 47 56 72 74 71 73 73 74 76 77 85 82 84 91 95 94 96 97 94 92 93 84 79 83 94 95 94 79 95 95 87 97 94 87 88 98
80 83 78 64 62 58 54 48 46 48 42 36 44 58 64 71 72 72 78 72 71 77 77 88 82 86 93 93 94 96 93 89 89 91 93 84 95 96 88 93 80 96 89 87 98 95 91 88 93
84 69 62 57 54 50 48 42 45 47 43 42 45 61 78 76 84 83 77 70 70 77 80 87 82 90 93 89 92 96 95 92 91 94 94 98 94 91 96 89 78 89 94 89 98 93 98 95 94
61 57 60 56 49 45 44 41 43 46 45 50 49 54 76 86 84 80 73 69 70 74 78 84 87 86 90 94 91 94 92 84 88 93 95 96 97 97 97 97 86 94 90 87 97 96 96 94 80
57 54 61 60 53 49 43 40 47 48 48 50 42 63 82 82 85 89 78 74 77 79 83 89 88 93 93 96 93 95 93 81 89 84 93 95 95 97 98 92 85 96 87 87 97 95 94 96 84
53 54 54 51 52 44 40 39 42 47 50 43 42 63 79 84 90 92 91 83 79 81 82 90 88 88 90 89 93 94 94 78 91 82 79 90 89 94 93 89 88 93 93 94 98 96 95 84 83
45 40 46 44 47 38 36 38 38 40 46 44 45 51 56 87 94 90 92 94 88 83 80 86 86 91 93 94 97 94 90 82 86 82 79 89 88 93 89 88 96 96 97 95 96 93 92 89 77
36 54 40 35 38 36 34 36 36 48 49 56 70 68 78 90 88 78 79 81 76 80 84 83 83 85 87 90 97 93 87 89 84 86 88 93 93 93 88 88 92 94 97 95 93 93 95 88 87
37 34 30 30 32 32 33 36 34 43 56 51 64 83 80 84 74 67 66 68 69 75 80 85 86 92 85 86 93 86 84 93 90 93 93 90 89 88 82 94 92 93 94 87 86 86 83 89 88
31 28 30 28 33 35 38 35 37 42 37 39 56 71 72 74 68 62 62 66 66 72 78 81 83 93 87 86 88 85 85 88 91 87 89 94 86 85 87 85 86 88 89 93 88 91 93 73 75
28 21 18 23 30 36 36 36 33 37 48 47 61 67 67 65 65 61 60 64 68 73 78 85 87 96 94 97 89 84 86 82 88 91 93 89 84 82 82 86 87 86 89 90 91 92 90 76 73
18 16 16 20 29 35 38 39 38 52 56 61 65 66 63 62 63 64 66 68 71 74 78 83 93 95 95 94 97 90 90 81 89 91 90 85 87 88 84 85 85 85 85 80 80 74 74 77 77
14 18 19 31 37 37 36 36 37 51 58 65 60 63 64 62 64 67 66 69 72 76 78 83 92 90 97 96 96 91 89 80 83 90 90 78 92 84 89 79 88 83 84 84 82 75 74 77 79
19 19 20 17 38 38 33 35 35 51 54 59 58 62 64 64 65 67 66 68 74 76 80 88 86 87 91 89 93 90 90 82 81 82 86 72 71 74 78 88 87 87 89 88 83 76 86 85 90
19 20 21 18 28 38 37 28 33 45 48 58 62 58 60 64 64 66 66 68 71 74 86 93 90 90 94 94 92 93 90 84 77 76 72 61 60 66 78 86 85 72 86 86 85 75 86 90 96
20 20 21 20 15 23 25 26 20 40 43 49 61 58 60 61 63 64 66 68 71 76 89 93 73 92 96 93 95 92 84 83 80 78 72 58 58 61 67 84 78 76 87 88 76 75 99 100 93
19 21 21 16 13 13 11 13 13 16 36 42 47 56 59 60 55 60 63 64 69 80 84 88 93 98 96 92 87 79 78 83 84 81 58 57 59 61 63 75 73 72 84 87 87 87 100 86 88
18 19 17 13 11 11 12 14 15 30 35 37 40 47 50 51 54 58 61 64 69 76 81 86 92 95 89 87 85 72 76 81 82 83 71 58 60 60 66 65 74 73 82 88 90 93 91 99 94
16 17 14 11 10 10 14 12 14 21 35 37 37 38 41 45 51 54 58 59 66 71 79 83 90 92 73 83 88 82 84 87 85 85 80 66 61 62 65 66 71 74 75 80 91 94 93 88 97
18 10 10 9 9 10 11 11 18 19 21 29 32 36 39 42 44 48 50 54 60 66 75 78 86 90 72 68 82 77 64 66 68 69 72 67 58 61 63 63 64 65 79 81 88 93 93 97 98
11 8 8 9 9 11 13 15 10 22 14 10 12 30 33 40 39 42 44 49 52 61 67 74 82 88 83 63 69 78 72 68 69 70 76 62 66 61 63 66 66 64 71 73 85 96 97 90 86
8 8 10 12 11 11 12 16 10 11 17 13 12 23 33 36 37 38 43 45 51 57 65 69 80 87 89 87 72 69 74 76 74 74 71 71 72 73 60 65 68 64 73 80 80 90 85 77 90
8 8 12 14 12 11 15 19 11 9 11 14 16 21 32 39 36 37 43 45 48 54 61 66 76 82 85 87 87 79 73 79 79 74 71 70 71 74 80 65 68 69 65 74 83 88 91 94 95
9 7 10 17 14 10 16 11 7 9 10 19 22 22 26 33 33 32 37 41 51 55 60 64 71 76 80 82 82 78 81 79 78 78 70 73 69 69 76 68 63 64 71 75 74 91 89 82 91
10 10 7 9 12 11 10 11 9 13 11 12 16 18 26 31 32 32 37 40 50 54 61 63 67 72 75 74 81 84 84 82 77 76 83 77 78 74 77 68 67 80 75 85 86 100 80 82 91
8 8 9 11 16 14 12 15 10 14 12 12 12 10 16 32 35 33 36 41 47 49 56 62 64 66 70 69 76 78 82 79 77 81 79 77 72 68 73 73 69 72 99 92 90 98 85 88 90
9 9 11 10 11 12 12 10 11 15 14 13 10 12 15 16 27 33 36 40 45 46 50 56 62 63 66 68 71 77 80 84 86 81 82 81 82 62 64 77 74 86 93 86 98 100 100 100 99
9 8 9 11 17 14 14 10 11 18 23 22 20 19 22 24 22 31 35 42 46 47 47 52 58 61 62 65 72 78 83 90 87 84 84 85 88 72 68 72 81 99 99 87 90 99 99 99 99